User: anonymous   Login
Location: Columbia
(38.9520°N, 92.3340°W)
Time: 20:14:11
(UTC-06:00)
Language:

Cosmos 158 Rocket - Orbit

View from above orbital plane
View from above orbital plane
View from above satellite
View from above satellite

Ground track
Ground track

The orbit data is extracted from the following two-line orbital elements,

1 02802U 67045B   14352.54355141  .00000531  00000-0  16132-3 0  6382
2 02802 074.0134 063.4532 0067839 336.1518 023.6499 14.43321056497435
Epoch (UTC): 18 December 2014 13:02:42
Eccentricity: 0.0067839
inclination: 74.0134°
perigee height: 699 km
apogee height: 796 km
right ascension of ascending node: 63.4532°
argument of perigee: 336.1518°
revolutions per day: 14.43321056
mean anomaly at epoch: 23.6499°
orbit number at epoch: 49743

The dashed part of the orbit path shows where the satellite is in the earth's shadow,  

DLR